Location: Unspecified
(53.8437°S, 0.0000°E)
Time: 06:41:51
(UTC+00:00)

Daily predictions for brighter satellites

Satellite Brightness Start Highest point End
(mag) Time Altitude Azimuth Time Altitude Azimuth Time Altitude Azimuth
Cosmos 1500 Rocket 3.6 18:04:10 10° S 18:08:40 74° ESE 18:13:05 10° NNE
Cosmos 1867 4.3 18:05:21 10° WNW 18:10:40 53° SW 18:15:59 10° SE
Helios 1A Rocket 2.5 18:08:06 10° NE 18:11:17 49° ESE 18:14:30 10° S
Meteor 2-4 Rocket 4.4 18:05:54 10° NNW 18:11:39 65° WSW 18:17:36 10° S
Cosmos 2082 Rocket 3.5 18:08:37 10° WNW 18:13:58 42° SW 18:19:23 10° SSE
USA 290 3.3 18:11:58 10° NNE 18:14:40 25° ENE 18:17:24 10° SE
S3M 4.0 18:08:39 10° N 18:14:45 68° E 18:20:56 10° SSE
Cosmos 2084 Rocket 3.9 18:10:54 10° SW 18:14:58 45° SSE 18:18:58 10° ENE
Cosmos 1758 3.2 18:11:57 10° SSW 18:15:43 89° W 18:19:27 10° N
CORIOLIS 4.3 18:11:24 10° SSE 18:16:50 57° E 18:22:11 10° N
CZ-4C R/B 3.1 18:11:10 10° NW 18:19:50 86° SW 18:26:41 10° SE
Cosmos 1743 Rocket 3.5 18:15:29 10° S 18:19:52 64° ESE 18:24:12 10° NNE
Cosmos 1666 Rocket 4.2 18:16:15 10° S 18:20:25 36° ESE 18:24:31 10° NE
MOS 1 Rocket 3.2 18:18:22 10° SSE 18:22:44 82° WSW 18:27:07 10° NNW
Cosmos 2360 Rocket 3.2 18:19:05 10° SW 18:24:35 50° WNW 18:30:01 10° N
Cosmos 1805 Rocket 3.8 18:20:17 10° SSW 18:24:41 77° W 18:29:02 10° N
SL-14 R/B 3.2 18:21:08 10° N 18:24:58 85° E 18:28:50 10° SSE
Cosmos 2322 Rocket 3.5 18:21:54 10° SW 18:27:22 45° WNW 18:32:46 10° N
SL-4 R/B 1.8 18:24:21 10° WNW 18:27:39 56° N 18:30:44 12° E
Cosmos 1633 Rocket 3.7 18:24:21 10° S 18:28:27 35° ESE 18:32:31 10° NE
SMAP 3.1 18:25:16 10° SSE 18:30:01 70° ENE 18:34:44 10° N
Cosmos 2322 3.8 18:25:24 10° SSW 18:31:05 60° SE 18:36:43 10° NE
RESURS DK-1 4.2 18:29:06 10° S 18:31:48 17° SSE 18:34:15 11° ESE
Cosmos 1937 Rocket 3.5 18:26:59 10° SSW 18:32:14 74° ESE 18:37:29 10° NNE
USA 215 3.5 18:27:09 10° ESE 18:33:38 55° NE 18:40:03 10° NW
USA 81 4.3 18:30:43 10° S 18:36:05 77° W 18:41:23 10° N
YAOGAN 1 3.5 18:32:34 10° SE 18:36:11 25° E 18:39:46 10° NNE
Cosmos 540 Rocket 3.8 18:32:10 10° NNW 18:37:19 72° WSW 18:42:30 10° SSE
Cosmos 2237 Rocket 3.0 18:32:27 10° SSW 18:37:39 35° SE 18:42:07 13° ENE
Cosmos 1980 4.4 18:32:26 10° SSW 18:37:45 37° SE 18:42:24 13° ENE
CBERS-1 4.0 18:32:56 10° SSE 18:38:09 80° ENE 18:43:19 10° NNW
COSMOS 2406 4.2 18:33:12 10° NW 18:38:45 50° SW 18:44:22 10° SSE
ARIANE 5 R/B 2.8 18:34:11 10° SSE 18:39:05 44° E 18:43:53 10° N
Cosmos 2315 Rocket 4.0 18:35:52 10° N 18:42:11 82° E 18:48:31 10° SSE
Cosmos 841 Rocket 3.7 18:40:42 10° N 18:45:45 48° ENE 18:50:51 10° SE
Cosmos 2184 Rocket 4.2 18:39:48 10° S 18:45:59 53° ESE 18:52:09 10° NNE
CZ-2D R/B 2.9 18:46:39 10° SSE 18:49:38 46° E 18:52:36 10° N
AQUARIUS 4.1 18:45:50 10° SSE 18:50:19 63° ENE 18:54:44 10° N
Cosmos 1703 3.4 18:48:54 10° NNE 18:51:55 34° E 18:54:58 10° SSE
COSMOS 2428 2.7 18:48:48 10° SSW 18:54:34 75° SE 19:00:19 10° NE
SPOT 1/Viking Rocket 3.5 18:49:49 10° SSE 18:55:02 63° ENE 19:00:11 10° N
Cosmos 1763 Rocket 4.5 18:52:38 10° NW 18:57:39 48° SW 19:02:39 10° SSE
Cosmos 468 Rocket 4.1 18:55:08 10° NNW 19:00:20 78° WSW 19:05:33 10° SSE
GEOS 3 Rocket 3.7 18:57:24 10° SE 19:02:22 53° NE 19:07:20 10° NNW
NOSS 0 Rocket 3.9 18:58:22 10° SSW 19:04:38 74° SE 19:10:19 13° NE
Cosmos 2219 Rocket 3.6 19:00:30 10° SW 19:05:49 41° WNW 19:11:05 10° N
Cosmos 1953 2.0 19:05:22 10° S 19:09:08 80° ESE 19:12:48 10° NNE
USA 267 4.1 19:03:02 10° NNE 19:09:19 46° NW 19:15:39 10° WSW
Cosmos 1607 4.4 19:04:07 10° WNW 19:10:28 63° SW 19:16:47 10° SE
Cosmos 2084 4.1 19:09:46 10° WNW 19:13:49 52° SSW 19:17:36 12° SE
Meteor 1-13 Rocket 4.3 19:08:06 10° N 19:13:59 68° E 19:20:00 10° SSE
SKYMED 3 4.3 19:11:04 10° NNE 19:15:02 86° WNW 19:19:07 10° SSW
Cosmos 1340 Rocket 3.2 19:11:48 10° SSW 19:15:42 62° W 19:19:30 10° N
SJ-12 3.7 19:12:40 10° SSE 19:16:34 84° WSW 19:20:23 10° NNW
Cosmos 1470 Rocket 3.5 19:18:21 10° S 19:22:52 74° ESE 19:27:03 12° NNE
Nadezhda 1 Rocket 4.2 19:19:32 10° NNE 19:25:22 47° E 19:31:19 10° SSE
Cosmos 2074 Rocket 4.0 19:19:45 10° SSW 19:26:07 88° W 19:32:23 10° N
Resurs 01 Rocket 2.0 19:24:18 10° SSE 19:28:35 41° E 19:32:50 10° NNE
Cosmos 44 Rocket 4.0 19:25:25 10° WNW 19:30:01 50° SW 19:34:34 10° SE
Cosmos 1933 Rocket 3.9 19:26:10 10° S 19:30:24 43° ESE 19:31:24 37° ENE
Geosat FO 3.9 19:31:47 69° ENE 19:32:04 80° SE 19:35:03 10° SSW
Thor Agena Rocket 3.9 19:29:31 10° SSE 19:34:46 68° WSW 19:40:01 10° NNW
Cosmos 2297 Rocket 2.9 19:32:15 10° NNE 19:41:24 14° SE 19:42:15 10° SE
SL-16 R/B 3.1 19:35:12 10° SSW 19:40:23 33° SE 19:42:02 28° ESE
NOAA 6 4.1 19:35:37 10° SSE 19:40:45 52° E 19:45:50 10° N
SL-08 R/B 3.9 19:36:20 10° N 19:41:11 59° WNW 19:46:02 10° SSW
Cosmos 1125 Rocket 3.9 19:38:55 10° SSW 19:43:58 44° SE 19:45:10 38° E
SAR-Lupe-1 3.9 19:40:33 10° SSE 19:44:11 70° ENE 19:46:12 24° N
SL-8 Rocket 4.2 19:38:21 10° S 19:44:25 48° ESE 19:46:38 34° ENE
CZ-2D R/B 3.3 19:42:34 10° SSE 19:46:48 71° ENE 19:51:01 10° N
Meteor 1-12 Rocket 4.2 19:42:28 10° SSW 19:48:15 85° ESE 19:52:29 19° NNE
USA 290 4.2 19:45:51 10° WNW 19:48:45 30° SW 19:51:41 10° S
Resurs 1-3 3.9 19:44:27 10° S 19:48:50 68° WSW 19:53:08 10° NNW
Cosmos 192 4.2 19:44:22 10° SSW 19:49:22 80° ESE 19:51:08 40° NE
ATLAS 2AS CENTAUR R/B 3.8 19:42:32 10° WSW 19:49:22 39° S 19:54:25 18° ESE
Cosmos 2366 rocket 4.3 19:43:07 10° S 19:49:23 48° ESE 19:51:29 36° ENE
Cosmos 1610 Rocket 4.5 19:43:03 10° S 19:49:30 87° E 19:55:37 12° N
Meteor 1-16 Rocket 4.3 19:45:41 10° SSW 19:51:13 76° W 19:56:41 11° N
Cosmos 1328 Rocket 4.1 19:47:47 10° NNW 19:52:12 61° WSW 19:56:39 10° S
Cosmos 2327 Rocket 4.4 19:47:07 10° S 19:53:23 68° ESE 19:56:34 30° NNE
Cosmos 2084 Rocket 4.2 19:49:45 10° WSW 19:53:45 45° NW 19:55:06 33° N
PSLV R/B 3.3 19:52:29 10° SSE 19:56:23 63° E 19:56:23 63° E
Cosmos 44 3.3 19:53:42 10° SW 19:57:52 49° SE 19:58:06 49° SE
Cosmos 1869 Rocket 3.5 19:55:51 10° S 20:00:09 59° ESE 20:00:09 59° ESE
SAR-Lupe-4 3.8 19:59:42 10° SSE 20:03:21 71° WSW 20:06:58 10° NNW
Okean 2 4.2 20:05:35 37° SSE 20:05:35 37° SSE 20:08:04 10° SSE
Cosmos 2218 Rocket 4.1 19:58:19 10° S 20:04:42 56° ESE 20:06:21 44° ENE
SL-4 R/B 2.4 20:01:29 10° W 20:04:14 44° NW 20:04:14 44° NW
Meteor 1-21 4.2 19:59:18 10° NNW 20:04:57 85° WSW 20:10:43 10° SSE
SPOT 5 4.2 20:03:22 10° SSE 20:06:20 29° SE 20:06:20 29° SE
CZ-4C R/B 3.7 20:01:22 10° W 20:08:55 44° SSW 20:13:46 16° SE
RESURS DK-1 2.5 20:05:52 10° SSW 20:09:30 62° SSE 20:09:30 62° SSE
YAOGAN 1 3.5 20:08:03 10° S 20:12:14 47° WSW 20:16:23 10° NW
USA 215 3.3 20:13:24 31° ESE 20:16:55 81° SSW 20:23:30 10° WNW
ARIANE 5 R/B 4.0 20:13:24 10° S 20:18:03 36° WSW 20:22:37 10° NW
Cosmos 2285 Rocket 4.5 20:12:41 10° SSW 20:18:52 44° SE 20:19:42 42° ESE
CARTOSAT-1 4.3 20:16:35 10° S 20:20:47 52° WSW 20:24:55 10° NW
Cosmos 2237 Rocket 2.5 20:16:27 10° SW 20:22:06 64° WNW 20:23:55 42° N
Cosmos 1980 4.1 20:16:29 10° SW 20:22:09 60° WNW 20:24:14 37° N
Cosmos 1515 Rocket 4.0 20:25:09 21° NNW 20:28:01 62° WSW 20:32:28 10° S
Cosmos 1821 Rocket 3.9 20:26:16 10° S 20:32:28 62° ESE 20:32:42 62° E
Cosmos 1959 Rocket 4.4 20:26:23 10° S 20:32:40 77° ESE 20:33:40 63° NE
Cosmos 2341 Rocket 3.9 20:30:10 10° SSW 20:36:35 86° W 20:38:17 52° N
Cosmos 1814 Rocket 3.9 20:31:46 10° NNW 20:37:10 89° ENE 20:42:37 10° SSE
GEOS 3 Rocket 4.3 20:37:24 22° SSE 20:40:24 50° SSW 20:45:16 10° WNW
Cosmos 2181 Rocket 4.3 20:46:47 51° SE 20:46:47 51° SE 20:52:00 10° SSE
Radarsat Rocket 4.4 20:43:21 10° SSE 20:49:19 66° WSW 20:55:46 10° NW
Resurs 01 Rocket 3.4 21:00:52 10° S 21:04:51 31° WSW 21:08:48 10° NW
Cosmos 1943 4.0 21:07:31 10° SSW 21:11:56 44° SSE 21:11:56 44° SSE
Cosmos 2297 Rocket 3.2 21:15:21 10° NW 21:23:00 39° S 21:26:41 10° SSE
SL-16 R/B 2.7 21:19:16 10° SW 21:23:53 56° WSW 21:23:53 56° WSW
ATLAS 2AS CENTAUR R/B 3.2 21:34:29 10° SW 21:41:46 54° SSE 21:41:49 54° SSE
SPOT 5 4.3 21:41:20 10° S 21:45:22 39° SW 21:45:22 39° SW
CZ-4C R/B 3.6 21:52:06 10° WSW 21:58:37 36° S 21:58:40 36° S
USA 215 3.6 22:00:46 61° SW 22:00:46 61° SW 22:06:19 10° WSW
Terra 4.3 22:04:34 10° S 22:05:36 16° S 22:05:36 16° S
ACS3 Solar Sail 3.7 23:04:16 22° SSE 23:04:16 22° SSE 23:07:01 10° S
Cosmos 2297 Rocket 4.4 23:04:34 19° SW 23:06:13 21° SSW 23:10:33 10° SSE
Cosmos 2082 Rocket 4.5 23:27:35 10° SSW 23:29:58 20° S 23:29:58 20° S
ATLAS 2AS CENTAUR R/B 4.2 23:25:41 10° SW 23:29:12 31° WSW 23:29:12 31° WSW
